HP1MRA-15 Weather Reports


time (UTC)temp
C
wind
direction
speed
KPH
gust
KPH
rain 1hr
cm
rain 24hr
cm
rain mn
cm
humidity
%
barometer
mb
20260503033153 25 0 9.7 12.9 0.00 0.00 0.00 86 1003.5
20260503032653 25 0 8.0 11.3 0.00 0.00 0.00 86 1003.6
20260503032153 25 0 6.4 8.0 0.00 0.00 0.00 86 1003.8
20260503031652 25 0 3.2 8.0 0.00 0.00 0.00 86 1003.9
20260503031153 25 0 3.2 8.0 0.00 0.00 0.00 86 1003.9
20260503030652 25 45 3.2 6.4 0.00 0.00 0.00 86 1003.9
20260503030153 25 45 3.2 4.8 0.00 0.00 0.00 86 1004.1
20260503025652 25 45 3.2 4.8 0.00 0.00 0.00 86 1004.1
20260503025153 25 45 3.2 6.4 0.00 0.00 0.00 86 1004.1
20260503024652 25 0 3.2 6.4 0.00 0.00 0.00 86 1004.1
20260503024152 25 45 3.2 4.8 0.00 0.00 0.00 86 1004.2
20260503023652 25 45 3.2 4.8 0.00 0.00 0.00 86 1004.2
20260503023152 25 45 3.2 3.2 0.00 0.00 0.00 86 1004.2
20260503022653 25 45 1.6 3.2 0.00 0.00 0.00 86 1004.2
20260503022152 25 90 3.2 6.4 0.00 0.00 0.00 86 1004.2
20260503021653 25 90 3.2 4.8 0.00 0.00 0.00 86 1004.2
20260503021152 25 90 1.6 4.8 0.00 0.00 0.00 86 1004.2
20260503020652 25 45 3.2 4.8 0.00 0.00 0.00 86 1004.2
20260503020152 25 90 1.6 3.2 0.00 0.00 0.00 86 1004.3
20260503015652 25 45 1.6 3.2 0.00 0.00 0.00 86 1004.4
20260503015152 25 45 1.6 3.2 0.00 0.00 0.00 86 1004.3
20260503014651 25 90 1.6 3.2 0.00 0.00 0.00 86 1004.3
20260503014152 24 135 0.0 4.8 0.00 0.00 0.00 86 1004.3
20260503013652 24 180 3.2 4.8 0.00 0.00 0.00 86 1004.3
20260503013152 24 135 3.2 6.4 0.00 0.00 0.00 87 1004.3
20260503012652 24 180 3.2 8.0 0.00 0.00 0.00 87 1004.4
20260503012151 24 180 3.2 8.0 0.00 0.00 0.00 87 1004.5
20260503011652 24 180 3.2 8.0 0.00 0.00 0.00 87 1004.7
20260503011151 24 135 3.2 8.0 0.00 0.00 0.00 87 1004.8
20260503010652 24 135 4.8 11.3 0.00 0.00 0.00 87 1004.9
20260503010151 24 135 8.0 12.9 0.00 0.00 0.00 87 1004.9
20260503005652 24 180 6.4 14.5 0.00 0.00 0.00 87 1005.0
20260503005151 24 135 8.0 17.7 0.00 0.00 0.00 88 1005.1
20260503004652 -17 135 9.7 19.3 0.00 0.00 0.00 1005.3
20260503004151 24 180 11.3 19.3 0.00 0.00 0.00 88 1005.3
20260503003652 24 180 8.0 17.7 0.00 0.00 0.00 88 1005.2
20260503003151 24 180 14.5 22.5 0.00 0.00 0.00 89 1005.4
20260503002650 24 180 8.0 24.1 0.00 0.00 0.00 91 1005.4
20260503002150 24 135 12.9 22.5 0.00 0.00 0.00 91 1005.4
20260503001650 24 180 12.9 22.5 0.00 0.00 0.00 92 1005.4
20260503001151 24 135 9.7 24.1 0.00 0.00 0.00 92 1005.3
20260503000650 24 180 12.9 17.7 0.00 0.00 0.00 92 1005.3
20260503000151 24 135 8.0 20.9 0.00 0.00 0.00 92 1005.3
20260502235649 24 180 11.3 16.1 0.00 0.00 0.00 92 1005.4
20260502235149 24 135 11.3 20.9 0.00 0.00 0.00 92 1005.4
20260502234649 24 135 11.3 22.5 0.00 0.00 0.00 91 1005.3
20260502234148 24 135 14.5 22.5 0.00 0.00 0.00 91 1005.2
20260502233646 24 225 11.3 25.7 0.00 0.00 0.00 91 1004.9
20260502232641 24 135 11.3 32.2 0.00 0.00 0.00 91 1004.7
20260502232142 25 180 19.3 32.2 0.00 0.00 0.00 91 1004.7
20260502231641 25 180 12.9 20.9 0.00 0.00 0.00 92 1004.3
20260502231142 25 180 14.5 24.1 0.00 0.00 0.00 92 1004.3
20260502230641 25 180 8.0 12.9 0.00 0.00 0.00 91 1004.2
20260502230141 25 180 4.8 8.0 0.00 0.00 0.00 90 1003.8
20260502225641 25 180 3.2 8.0 0.00 0.00 0.00 90 1003.6
20260502225141 25 180 3.2 8.0 0.00 0.00 0.00 89 1003.5
20260502224641 25 180 3.2 8.0 0.00 0.00 0.00 89 1003.3
20260502224144 25 135 3.2 6.4 0.00 0.00 0.00 89 1003.2
20260502223641 25 225 3.2 8.0 0.00 0.00 0.00 89 1003.1
20260502223141 25 180 3.2 6.4 0.00 0.00 0.00 88 1003.0
20260502222641 25 225 4.8 8.0 0.00 0.00 0.00 88 1002.9
20260502222225 25 225 3.2 6.4 0.00 0.00 0.00 88 1002.9
20260502221725 25 225 3.2 6.4 0.00 0.00 0.00 87 1003.0
20260502221224 26 225 3.2 6.4 0.00 0.00 0.00 87 1002.9
20260502220725 26 270 1.6 3.2 0.00 0.00 0.00 87 1002.9
20260502220225 26 225 3.2 8.0 0.00 0.00 0.00 87 1002.9
20260502215725 26 225 3.2 8.0 0.00 0.00 0.00 87 1002.9
20260502215225 26 225 3.2 6.4 0.00 0.00 0.00 87 1003.0
20260502214725 26 225 3.2 8.0 0.00 0.00 0.00 87 1002.9
20260502214225 26 225 3.2 8.0 0.00 0.00 0.00 86 1002.8
20260502213724 26 225 6.4 9.7 0.00 0.00 0.00 85 1002.7
20260502213224 26 225 4.8 8.0 0.00 0.00 0.00 84 1002.5
20260502212724 26 225 1.6 3.2 0.00 0.00 0.00 84 1002.5
20260502212224 26 270 1.6 3.2 0.00 0.00 0.00 84 1002.4
20260502211725 27 225 1.6 3.2 0.00 0.00 0.00 83 1002.4
20260502211224 27 0 0.0 3.2 0.00 0.00 0.00 83 1002.4
20260502210724 27 180 0.0 3.2 0.00 0.00 0.00 83 1002.3
20260502210225 27 0 0.0 1.6 0.00 0.00 0.00 83 1002.3
20260502205724 27 0 0.0 0.0 0.00 0.00 0.00 83 1002.3
20260502205224 27 0 0.0 0.0 0.00 0.00 0.00 83 1002.3
20260502204724 27 0 0.0 0.0 0.00 0.00 0.00 83 1002.3
20260502204224 27 225 0.0 1.6 0.00 0.00 0.00 83 1002.4
20260502203724 27 0 0.0 1.6 0.00 0.00 0.00 83 1002.4
20260502203224 27 45 0.0 1.6 0.00 0.00 0.00 83 1002.4
20260502202724 27 0 0.0 0.0 0.00 0.00 0.00 83 1002.4
20260502202224 27 45 0.0 1.6 0.00 0.00 0.00 83 1002.4
20260502201724 27 0 0.0 1.6 0.00 0.00 0.00 83 1002.4
20260502201224 27 225 0.0 0.0 0.00 0.00 0.00 83 1002.4
20260502200724 27 270 0.0 1.6 0.00 0.00 0.00 83 1002.5
20260502200224 27 0 0.0 1.6 0.00 0.00 0.00 83 1002.6
20260502195723 27 0 0.0 3.2 0.00 0.00 0.00 83 1002.8
20260502195224 27 0 0.0 3.2 0.00 0.00 0.00 83 1002.9
20260502194724 27 0 0.0 3.2 0.00 0.00 0.00 83 1002.9
20260502194224 27 0 0.0 3.2 0.00 0.00 0.00 84 1002.9
20260502193724 27 270 1.6 4.8 0.00 0.00 0.00 84 1002.8
20260502193223 27 225 0.0 3.2 0.00 0.00 0.00 84 1002.8
20260502192724 27 270 1.6 4.8 0.00 0.00 0.00 85 1002.7
20260502192223 27 225 0.0 1.6 0.00 0.00 0.00 85 1002.6
20260502191723 27 270 0.0 9.7 0.00 0.00 0.00 85 1002.7
20260502191224 26 270 4.8 9.7 0.00 0.00 0.00 86 1002.7
20260502190723 27 225 4.8 12.9 0.00 0.00 0.00 86 1002.7
20260502190224 27 225 8.0 11.3 0.00 0.00 0.00 86 1002.7
20260502185723 27 180 3.2 11.3 0.00 0.00 0.00 86 1002.8
20260502185224 27 225 8.0 12.9 0.00 0.00 0.00 85 1002.9
20260502184723 27 180 6.4 16.1 0.00 0.00 0.00 84 1003.1
20260502184223 28 180 8.0 12.9 0.00 0.00 0.00 82 1003.1
20260502183723 28 135 4.8 12.9 0.00 0.00 0.00 82 1003.1
20260502183223 28 225 4.8 11.3 0.00 0.00 0.00 82 1003.0
20260502182723 29 180 1.6 3.2 0.00 0.00 0.00 82 1003.0
20260502182223 29 225 3.2 6.4 0.00 0.00 0.00 81 1002.9
20260502181723 29 0 0.0 3.2 0.00 0.00 0.00 80 1003.0
20260502181223 29 0 0.0 8.0 0.00 0.00 0.00 80 1003.1
20260502180723 29 225 3.2 8.0 0.00 0.00 0.00 81 1003.1
20260502180223 30 225 0.0 8.0 0.00 0.00 0.00 80 1003.1
20260502170222 30 225 8.0 12.9 0.00 0.00 0.00 73 1003.8
20260502164222 32 225 6.4 9.7 0.00 0.00 0.00 67 1003.7
20260502163722 32 270 3.2 6.4 0.00 0.00 0.00 69 1003.6
20260502163222 32 225 0.0 3.2 0.00 0.00 0.00 70 1003.6
20260502162723 32 270 0.0 8.0 0.00 0.00 0.00 69 1003.5
20260502162222 32 225 3.2 8.0 0.00 0.00 0.00 69 1003.5
20260502161722 32 225 1.6 8.0 0.00 0.00 0.00 70 1003.6
20260502161222 32 225 3.2 11.3 0.00 0.00 0.00 70 1003.7
20260502160722 32 180 8.0 12.9 0.00 0.00 0.00 69 1003.7
20260502160222 32 180 3.2 12.9 0.00 0.00 0.00 70 1003.7
20260502152221 30 180 6.4 11.3 0.00 0.00 0.00 75 1003.7
20260502151722 30 180 4.8 12.9 0.00 0.00 0.00 74 1003.5
20260502151222 30 225 4.8 11.3 0.00 0.00 0.00 75 1003.6
20260502150721 30 225 4.8 16.1 0.00 0.00 0.00 74 1003.7
20260502150222 31 270 11.3 17.7 0.00 0.00 0.00 72 1003.6
20260502130729 28 135 1.6 6.4 0.00 0.00 0.00 84 1002.1
20260502130229 28 135 3.2 6.4 0.00 0.00 0.00 83 1001.9
20260502123729 27 180 3.2 4.8 0.00 0.00 0.00 84 1001.5
20260502123229 28 45 1.6 4.8 0.00 0.00 0.00 84 1001.4
20260502122729 28 225 1.6 3.2 0.00 0.00 0.00 84 1001.2
20260502122230 27 0 0.0 3.2 0.00 0.00 0.00 86 1001.2
20260502121727 27 135 0.0 3.2 0.00 0.00 0.00 86 1001.3
20260502121227 27 45 0.0 0.0 0.00 0.00 0.00 87 1001.3
20260502120727 27 90 0.0 1.6 0.00 0.00 0.00 88 1001.3
20260502120226 26 45 0.0 6.4 0.00 0.00 0.00 88 1001.3
20260502115724 26 0 1.6 6.4 0.00 0.00 0.00 88 1001.1
20260502114925 26 45 3.2 3.2 0.00 0.00 0.00 88 1001.3
20260502114426 26 45 1.6 8.0 0.00 0.00 0.00 88 1001.3
20260502113925 26 0 3.2 8.0 0.00 0.00 0.00 88 1001.2
20260502113425 26 45 3.2 4.8 0.00 0.00 0.00 88 1001.1
20260502112925 26 45 0.0 3.2 0.00 0.00 0.00 88 1001.2
20260502112425 26 45 0.0 3.2 0.00 0.00 0.00 88 1001.1
20260502111925 26 45 1.6 3.2 0.00 0.00 0.00 87 1001.2
20260502111425 26 135 1.6 4.8 0.00 0.00 0.00 87 1001.0
20260502110925 26 45 1.6 3.2 0.00 0.00 0.00 87 1000.8
20260502110426 26 90 0.0 1.6 0.00 0.00 0.00 87 1000.8
20260502105925 26 0 0.0 3.2 0.00 0.00 0.00 87 1000.9
20260502105424 26 0 3.2 8.0 0.00 0.00 0.00 87 1001.0
20260502104925 26 0 3.2 8.0 0.00 0.00 0.00 87 1000.9
20260502104425 26 0 1.6 3.2 0.00 0.00 0.00 88 1000.9
20260502103925 26 0 0.0 3.2 0.00 0.00 0.00 88 1000.9
20260502103425 26 0 0.0 6.4 0.00 0.00 0.00 88 1000.9
20260502102923 26 0 3.2 4.8 0.00 0.00 0.00 88 1000.8
20260502102425 26 45 3.2 8.0 0.00 0.00 0.00 88 1000.9
20260502101924 26 45 4.8 8.0 0.00 0.00 0.00 87 1000.7
20260502101425 26 45 4.8 8.0 0.00 0.00 0.00 87 1000.4
20260502100924 26 45 1.6 3.2 0.00 0.00 0.00 87 1000.5
20260502100424 26 45 0.0 0.0 0.00 0.00 0.00 88 1000.5
20260502091424 26 0 0.0 3.2 0.00 0.00 0.00 86 999.9
20260502090923 26 0 0.0 3.2 0.00 0.00 0.00 86 999.9
20260502090424 26 315 0.0 4.8 0.00 0.00 0.00 86 999.7
20260502071423 26 0 3.2 6.4 0.00 0.00 0.00 86 1000.6
20260502070922 26 0 0.0 4.8 0.00 0.00 0.00 86 1000.8
20260502070423 26 0 0.0 3.2 0.00 0.00 0.00 86 1001.0
20260502065923 26 45 1.6 3.2 0.00 0.00 0.00 86 1001.1
20260502065423 26 0 1.6 3.2 0.00 0.00 0.00 86 1001.0
20260502064923 26 45 1.6 4.8 0.00 0.00 0.00 86 1001.0
20260502064423 26 45 1.6 3.2 0.00 0.00 0.00 86 1000.9
20260502063923 26 45 0.0 6.4 0.00 0.00 0.00 86 1000.9
20260502063423 26 45 3.2 8.0 0.00 0.00 0.00 86 1000.8
20260502062922 26 45 4.8 8.0 0.00 0.00 0.00 86 1000.7
20260502062423 26 0 4.8 6.4 0.00 0.00 0.00 86 1000.9
20260502061923 26 45 3.2 8.0 0.00 0.00 0.00 86 1001.0
20260502061422 26 45 3.2 6.4 0.00 0.00 0.00 86 1001.0
20260502060923 26 90 3.2 6.4 0.00 0.00 0.00 86 1001.0
20260502060422 26 45 3.2 6.4 0.00 0.00 0.00 86 1001.0
20260502055922 26 45 3.2 8.0 0.00 0.00 0.00 86 1001.0
20260502055423 26 45 4.8 8.0 0.00 0.00 0.00 86 1000.9
20260502054922 26 45 3.2 6.4 0.00 0.00 0.00 86 1001.0
20260502054422 26 45 3.2 6.4 0.00 0.00 0.00 86 1001.2
20260502053922 26 45 3.2 6.4 0.00 0.00 0.00 86 1001.4
20260502053422 26 45 3.2 6.4 0.00 0.00 0.00 86 1001.5
20260502052923 26 45 3.2 8.0 0.00 0.00 0.00 86 1001.7
20260502052422 26 45 4.8 8.0 0.00 0.00 0.00 86 1001.9
20260502051922 26 45 4.8 8.0 0.00 0.00 0.00 86 1001.9
20260502051422 26 45 8.0 11.3 0.00 0.00 0.00 85 1001.9
20260502050922 26 45 3.2 8.0 0.00 0.00 0.00 85 1002.1
20260502050422 27 45 3.2 8.0 0.00 0.00 0.00 84 1002.2
20260502045922 27 45 3.2 6.4 0.00 0.00 0.00 84 1002.3
20260502045422 27 0 3.2 4.8 0.00 0.00 0.00 84 1002.3
20260502044920 27 0 3.2 3.2 0.00 0.00 0.00 84 1002.3
20260502044422 27 0 1.6 9.7 0.00 0.00 0.00 84 1002.2
20260502043920 27 0 3.2 8.0 0.00 0.00 0.00 84 1002.2
20260502043420 27 0 3.2 8.0 0.00 0.00 0.00 84 1002.2
20260502042920 27 0 3.2 4.8 0.00 0.00 0.00 84 1002.3
20260502042419 27 0 3.2 4.8 0.00 0.00 0.00 84 1002.4
20260502041917 27 45 0.0 3.2 0.00 0.00 0.00 84 1002.3
20260502041145 27 0 0.0 3.2 0.00 0.00 0.00 84 1002.3
20260502040645 27 180 1.6 3.2 0.00 0.00 0.00 84 1002.2
20260502040144 27 180 0.0 0.0 0.00 0.00 0.00 84 1002.1
20260502035645 27 0 0.0 1.6 0.00 0.00 0.00 84 1001.9
20260502035144 -17 0 0.0 3.2 0.00 0.00 0.00 1001.7
20260502034644 27 315 0.0 6.4 0.00 0.00 0.00 84 1001.5
20260502034145 27 0 1.6 6.4 0.00 0.00 0.00 84 1001.4
20260502033645 27 0 1.6 4.8 0.00 0.00 0.00 84 1001.3